Location: Berville
(49.1893°N, 2.0748°E)
Time: 20:15:04
(UTC+00:00)

FENGYUN 1C DEB - Pass Details

Date: 28 February 2024
Orbit: 768 x 960 km, 99.0° (Epoch: 13 April)

Event Time Altitude Azimuth Distance (km) Brightness Sun altitude
Exits shadow 20:24:46 58° 37° (NE) 1,113 ? -28.5°
Drops below altitude 10° 20:29:59 10° 350° (N) 2,676 ? -29.3°
Sets 20:32:26 0° 348° (NNW) 3,606 ? -29.6°
